Waarnemingen

Advertentie
Mijn weer
Gourette, Frankrijk (7775): temperatuur & dauwpunt: 13.07.2018 21:00:00 - 19.07.2018 21:00:00 (CEST)Gourette, Frankrijk (7775): windsnelheid & windstoten: 13.07.2018 21:00:00 - 19.07.2018 21:00:00 (CEST)Gourette, Frankrijk (7775): windrichting: 13.07.2018 21:00:00 - 19.07.2018 21:00:00 (CEST)Gourette, Frankrijk (7775): luchtdruk: 13.07.2018 21:00:00 - 19.07.2018 21:00:00 (CEST)Gourette, Frankrijk (7775): zicht: 13.07.2018 21:00:00 - 19.07.2018 21:00:00 (CEST)Gourette, Frankrijk (7775): neerslag: 13.07.2018 21:00:00 - 19.07.2018 21:00:00 (CEST)
Datum & Tijd tt [°C] td [°C] ff [km/u] ff [kn] fx [km/u] fx [kn] dd ppp [hPa] vv [km] rr [mm]
19.07.2018 21:00:00 25,2 21,9 4 2 8 4 ZZW 1013,7 - 0,0
19.07.2018 20:00:00 26,7 22,1 5 3 9 5 OZO 1013,4 20 0,0
19.07.2018 19:00:00 27,9 22,4 6 3 16 9 O 1013,5 - 0,0
19.07.2018 18:00:00 29,0 22,7 10 5 22 12 ONO 1013,6 - 0,0
19.07.2018 17:00:00 28,8 22,3 13 7 22 12 ONO 1013,8 - 0,0
19.07.2018 16:00:00 28,3 22,5 11 6 22 12 O 1014,1 - 0,0
19.07.2018 15:00:00 28,5 22,3 13 7 22 12 O 1014,3 - 0,0
19.07.2018 14:00:00 29,5 22,7 11 6 22 12 O 1014,0 20 0,0
19.07.2018 13:00:00 28,3 22,1 13 7 23 13 O 1014,2 - 0,0
19.07.2018 12:00:00 28,4 21,9 13 7 23 12 O 1014,0 - 0,0
19.07.2018 11:00:00 28,4 22,2 13 7 22 12 O 1013,8 18 0,0
19.07.2018 10:00:00 28,8 21,8 10 5 19 11 O 1013,4 - 0,0
19.07.2018 09:00:00 26,7 22,1 8 4 14 7 ZZO 1013,5 - 0,0
19.07.2018 08:00:00 24,5 18,9 3 2 6 3 ONO 1013,7 18 0,0
19.07.2018 07:00:00 22,9 18,0 3 2 10 6 ZZW 1013,5 - 0,0
19.07.2018 06:00:00 23,5 19,8 8 4 10 5 NW 1013,7 - 0,0
19.07.2018 05:00:00 23,4 18,9 5 3 12 6 N 1013,6 - 0,0
19.07.2018 04:00:00 23,3 17,3 11 6 14 8 NNW 1013,9 - 0,0
19.07.2018 03:00:00 23,9 18,5 8 4 11 6 NNW 1014,0 - 0,0
19.07.2018 02:00:00 23,9 17,4 8 4 16 9 NNW 1014,2 - 0,0
19.07.2018 01:00:00 24,2 18,2 6 3 7 4 NNW 1014,3 - 0,0
19.07.2018 00:00:00 24,3 19,1 2 1 7 4 ZO 1014,3 - 0,0
18.07.2018 23:00:00 24,8 19,4 2 1 6 3 Z 1014,0 - 0,0
18.07.2018 22:00:00 25,2 19,3 4 2 8 5 WZW 1013,9 - 0,0
18.07.2018 21:00:00 25,5 18,9 8 4 15 8 Z 1013,7 - 0,0
18.07.2018 20:00:00 27,1 19,2 9 5 20 11 Z 1013,5 25 0,0
18.07.2018 19:00:00 28,2 19,4 15 8 25 14 ZZO 1013,6 - 0,0
18.07.2018 18:00:00 29,4 19,1 15 8 27 14 ZZO 1013,9 - 0,0
18.07.2018 17:00:00 30,0 18,8 18 10 31 17 ZZO 1014,3 - 0,0
18.07.2018 16:00:00 29,9 20,7 18 10 33 18 ZZO 1014,4 - 0,0
18.07.2018 15:00:00 30,0 18,4 20 11 33 18 ZZO 1014,6 - 0,0
18.07.2018 14:00:00 29,9 20,7 18 10 32 17 ZO 1014,8 25 0,0
18.07.2018 13:00:00 28,9 20,9 22 12 33 18 ZZO 1015,1 - 0,0
18.07.2018 12:00:00 29,0 21,0 19 10 31 17 ZZO 1015,3 - 0,0
18.07.2018 11:00:00 28,3 19,0 16 9 28 15 ZZO 1015,2 25 0,0
18.07.2018 10:00:00 28,5 18,9 9 5 15 8 ZO 1015,0 - 0,0
18.07.2018 09:00:00 26,8 19,2 6 3 11 6 OZO 1015,1 - 0,0
18.07.2018 08:00:00 24,0 17,5 2 1 16 9 NNW 1015,0 - 0,0
18.07.2018 07:00:00 23,0 14,8 10 5 15 8 N 1014,8 - 0,0
18.07.2018 06:00:00 23,3 15,6 5 3 7 4 NNO 1014,5 - 0,0
18.07.2018 05:00:00 22,9 16,7 0 0 4 2 N 1014,3 - 0,0
18.07.2018 04:00:00 23,5 17,0 3 2 11 6 ZZW 1014,1 - 0,0
18.07.2018 03:00:00 23,1 17,6 10 6 11 6 ZW 1014,3 - 0,0
18.07.2018 02:00:00 23,9 17,4 3 2 12 6 ZZW 1014,4 - 0,0
18.07.2018 01:00:00 23,8 16,1 8 5 13 7 NNW 1014,3 - 0,0
18.07.2018 00:00:00 23,6 17,8 2 1 13 7 NNW 1014,2 - 0,0
17.07.2018 23:00:00 22,9 17,6 12 6 14 8 ZZW 1013,5 - 0,0
17.07.2018 22:00:00 23,4 17,8 10 5 16 9 ZW 1013,5 - 0,0
17.07.2018 21:00:00 24,6 18,3 13 7 18 10 Z 1012,9 - 0,0
17.07.2018 20:00:00 26,1 18,2 11 6 20 11 ZZO 1012,6 - 0,0
17.07.2018 19:00:00 27,3 19,1 9 5 17 9 ZZO 1012,7 - 0,0
17.07.2018 18:00:00 28,5 19,2 8 4 18 10 OZO 1012,9 - 0,0
17.07.2018 17:00:00 28,7 19,1 9 5 22 12 O 1013,0 - 0,0
17.07.2018 16:00:00 28,7 19,3 11 6 22 12 OZO 1013,0 - 0,0
17.07.2018 15:00:00 29,2 19,5 13 7 23 12 O 1013,0 - 0,0
17.07.2018 14:00:00 29,3 18,7 11 6 24 13 O 1013,0 25 0,0
17.07.2018 13:00:00 29,2 18,9 12 7 23 12 O 1012,8 - 0,0
17.07.2018 12:00:00 28,9 17,4 14 8 22 12 O 1012,5 - 0,0
17.07.2018 11:00:00 29,1 17,3 12 7 20 11 O 1012,1 - 0,0
17.07.2018 10:00:00 28,1 17,0 11 6 17 9 OZO 1011,7 - 0,0
17.07.2018 09:00:00 28,3 14,9 7 4 11 6 O 1011,2 - 0,0
17.07.2018 08:00:00 23,0 16,3 8 4 13 7 ZZW 1010,8 - 0,0
17.07.2018 07:00:00 22,3 12,5 9 5 16 8 ZW 1010,7 - 0,0
17.07.2018 06:00:00 21,9 13,8 11 6 13 7 ZZW 1010,3 - 0,0
17.07.2018 05:00:00 23,2 15,0 4 2 16 8 W 1009,8 - 0,0
17.07.2018 04:00:00 22,0 16,7 9 5 19 10 Z 1009,2 - 0,0
17.07.2018 03:00:00 22,2 16,0 9 5 19 10 N 1008,9 - 0,0
17.07.2018 02:00:00 21,9 18,7 16 9 22 12 WZW 1008,7 - 0,0
17.07.2018 01:00:00 23,1 20,1 8 4 29 16 W 1009,0 - 0,0
17.07.2018 00:00:00 23,6 18,0 6 4 25 13 ONO 1008,8 - 0,0
16.07.2018 23:00:00 24,8 16,5 22 12 41 22 N 1008,2 - 0,0
16.07.2018 22:00:00 25,6 15,3 25 13 46 25 WZW 1008,1 - 0,0
16.07.2018 21:00:00 25,0 15,6 19 11 32 17 WZW 1007,8 - 0,0
16.07.2018 20:00:00 25,2 17,9 16 9 26 14 WZW 1007,8 - 0,0
16.07.2018 19:00:00 27,8 19,1 11 6 20 11 ZZO 1007,4 - 0,0
16.07.2018 18:00:00 27,5 19,0 11 6 26 14 Z 1008,6 - 0,0
16.07.2018 17:00:00 25,7 21,6 29 15 65 35 ZZW 1009,0 - 1,2
16.07.2018 16:00:00 31,7 14,8 37 20 58 31 Z 1008,6 - 0,0
16.07.2018 15:00:00 31,9 20,2 7 4 16 9 ONO 1009,2 - 0,0
16.07.2018 14:00:00 29,0 23,0 6 4 22 12 O 1010,0 - 0,0
16.07.2018 13:00:00 29,6 22,8 8 4 23 13 ONO 1010,8 - 0,0
16.07.2018 12:00:00 26,7 21,9 4 2 16 9 ONO 1011,8 - 0,0
16.07.2018 11:00:00 26,1 20,2 3 2 25 13 ZO 1012,6 15 0,0
16.07.2018 10:00:00 25,6 19,7 10 5 17 9 Z 1013,5 - 0,0
16.07.2018 09:00:00 26,1 19,2 3 1 13 7 NNO 1011,9 - 0,0
16.07.2018 08:00:00 24,8 20,1 4 2 18 10 NW 1012,8 15 0,0
16.07.2018 07:00:00 22,8 20,1 16 8 17 9 ZW 1013,6 - 0,0
16.07.2018 06:00:00 23,1 20,2 4 2 16 9 WZW 1013,5 - 0,0
16.07.2018 05:00:00 23,5 19,4 12 7 20 11 NNW 1013,3 18 0,0
16.07.2018 04:00:00 24,6 19,9 8 5 14 8 NW 1013,8 - 0,0
16.07.2018 03:00:00 24,1 20,6 13 7 16 9 NW 1013,9 - 0,0
16.07.2018 02:00:00 24,2 21,5 9 5 13 7 NNW 1013,9 - 0,0
16.07.2018 01:00:00 23,9 21,4 11 6 15 8 NNW 1013,8 - 0,0
16.07.2018 00:00:00 24,3 21,2 9 5 12 6 N 1013,9 - 0,0
15.07.2018 23:00:00 25,1 23,0 2 1 9 5 N 1014,5 - 0,0
15.07.2018 22:00:00 25,2 22,5 6 3 8 4 N 1013,8 - 0,0
15.07.2018 21:00:00 26,1 22,6 4 2 9 5 O 1013,0 - 0,0
15.07.2018 20:00:00 28,1 21,9 4 2 17 9 O 1012,9 20 0,0
15.07.2018 19:00:00 28,4 22,4 11 6 21 12 ZZO 1013,0 - 0,0
15.07.2018 18:00:00 29,5 21,5 8 4 19 10 ZZO 1013,4 - 0,0
15.07.2018 17:00:00 29,5 21,7 11 6 22 12 OZO 1013,7 20 0,0
15.07.2018 16:00:00 30,4 21,8 9 5 21 11 OZO 1013,8 - 0,0
15.07.2018 15:00:00 30,6 21,9 11 6 23 12 O 1013,9 - 0,0
15.07.2018 14:00:00 30,6 20,2 13 7 22 12 O 1014,1 20 0,0
15.07.2018 13:00:00 30,6 20,8 12 7 23 13 ONO 1014,4 - 0,0
15.07.2018 12:00:00 29,3 22,0 16 8 27 15 ONO 1014,4 - 0,0
15.07.2018 11:00:00 29,7 20,3 13 7 23 12 ONO 1014,0 - 0,0
15.07.2018 10:00:00 30,1 19,5 13 7 18 10 NO 1014,0 - 0,0
15.07.2018 09:00:00 27,7 19,2 9 5 17 9 N 1014,1 - 0,0
15.07.2018 08:00:00 25,3 16,4 5 3 16 9 N 1013,7 - 0,0
15.07.2018 07:00:00 23,9 16,2 7 4 16 9 NNW 1013,4 - 0,0
15.07.2018 06:00:00 21,9 16,8 13 7 18 10 ZW 1013,5 - 0,0
15.07.2018 05:00:00 22,2 16,9 18 10 23 12 ZW 1013,3 - 0,0
15.07.2018 04:00:00 22,4 16,7 16 8 18 10 ZW 1013,3 - 0,0
15.07.2018 03:00:00 23,0 17,0 15 8 23 12 ZW 1013,3 - 0,0
15.07.2018 02:00:00 23,1 15,2 19 10 22 12 ZW 1013,8 - 0,0
15.07.2018 01:00:00 23,9 14,3 13 7 16 8 ZW 1014,1 - 0,0
15.07.2018 00:00:00 24,4 13,9 11 6 13 7 ZZW 1014,1 - 0,0
14.07.2018 23:00:00 25,3 14,1 11 6 16 9 ZZW 1014,0 - 0,0
14.07.2018 22:00:00 24,8 14,0 15 8 23 13 ZZW 1013,9 - 0,0
14.07.2018 21:00:00 26,5 15,5 19 11 23 13 Z 1013,1 - 0,0
14.07.2018 20:00:00 28,5 15,1 17 9 32 17 Z 1013,2 - 0,0
14.07.2018 19:00:00 30,0 13,3 24 13 35 19 ZZW 1013,2 - 0,0
14.07.2018 18:00:00 29,6 17,8 18 10 32 17 Z 1013,7 - 0,0
14.07.2018 17:00:00 29,4 19,4 21 11 33 18 ZZO 1014,1 - 0,0
14.07.2018 16:00:00 31,2 18,2 21 11 37 20 Z 1014,4 - 0,0
14.07.2018 15:00:00 29,2 21,2 24 13 35 19 ZZO 1014,8 - 0,0
14.07.2018 14:00:00 28,7 21,0 24 13 37 20 ZZO 1015,3 13 0,0
14.07.2018 13:00:00 27,3 21,8 20 11 32 17 ZZO 1015,8 - 0,0
14.07.2018 12:00:00 28,4 22,9 16 8 26 14 ZO 1016,5 - 0,0
14.07.2018 11:00:00 28,4 22,6 11 6 19 10 OZO 1016,7 - 0,0
14.07.2018 10:00:00 27,6 22,5 9 5 19 11 ZO 1017,1 - 0,0
14.07.2018 09:00:00 26,4 22,5 6 3 12 7 ZO 1017,1 - 0,0
14.07.2018 08:00:00 24,6 19,9 3 1 12 7 NNW 1017,2 18 0,0
14.07.2018 07:00:00 22,7 18,2 4 2 18 10 NW 1016,7 - 0,0
14.07.2018 06:00:00 22,9 18,7 13 7 20 11 N 1016,7 - 0,0
14.07.2018 05:00:00 22,6 17,3 16 8 18 10 N 1016,3 15 0,0
14.07.2018 04:00:00 21,8 14,7 8 5 16 9 ZW 1016,5 - 0,0
14.07.2018 03:00:00 22,4 14,5 11 6 17 9 ZZW 1016,4 - 0,0
14.07.2018 02:00:00 22,3 14,9 14 8 18 10 ZW 1016,6 - 0,0
14.07.2018 01:00:00 22,7 16,0 10 5 16 9 ZW 1017,2 - 0,0
14.07.2018 00:00:00 23,0 19,2 13 7 17 9 ZW 1017,4 - 0,0
13.07.2018 23:00:00 23,0 19,2 15 8 23 12 ZW 1016,8 - 0,0
13.07.2018 22:00:00 23,8 18,7 11 6 22 12 ZZW 1016,4 - 0,0
13.07.2018 21:00:00 24,7 18,2 17 9 21 12 ZZW 1016,4 - 0,0

tt = temperatuur
td = dauwpunt
ff = windsnelheid
fx = windstoten
dd = windrichting
ppp = luchtdruk
vv = zicht
rr = neerslag

Weerstations in de omgeving